Bookmark and Share
Track history (hours):
 

Highspeed 5

Last reported at 2014-Apr-23 10:27 UTC. Time now 2014-Apr-25 05:47 UTC.
Position N 37°57' E 023°36'.

Length 85 m; draft 3 m.

Type: High speed craft. MMSI: 240348000.

NotesDate/timePositionNaut miles runAvg speedWind from/ knotsBaromVisibWave heightAir tempDewpointWater temp
2014-Apr-23 10:27N 37°57' E 023°36'0 0.0
2014-Apr-23 09:27N 37°57' E 023°36'2 1.8
2014-Apr-23 08:32N 37°57' E 023°38'0 0.0
2014-Apr-23 07:32N 37°57' E 023°38'0 0.0
2014-Apr-23 06:29N 37°57' E 023°38'0 0.0
2014-Apr-23 05:29N 37°57' E 023°38'0 0.0
2014-Apr-23 04:32N 37°57' E 023°38'0 0.0
2014-Apr-23 03:32N 37°57' E 023°38'0 0.0
2014-Apr-23 02:32N 37°57' E 023°38'0 0.0
2014-Apr-23 01:32N 37°57' E 023°38'0 0.0
2014-Apr-23 00:29N 37°57' E 023°38'0 0.0
2014-Apr-22 23:32N 37°57' E 023°38'0 0.0
2014-Apr-22 22:32N 37°57' E 023°38'0 0.0
2014-Apr-22 21:32N 37°57' E 023°38'6612.9
2014-Apr-22 16:27N 37°36' E 024°57'1921.6
2014-Apr-22 15:33N 37°28' E 025°19'0 0.3
2014-Apr-22 14:32N 37°28' E 025°20'0 0.0
2014-Apr-22 13:32N 37°28' E 025°20'0 0.0
2014-Apr-22 12:32N 37°28' E 025°20'0 0.0
2014-Apr-22 11:26N 37°28' E 025°20'0 0.0
2014-Apr-22 10:29N 37°28' E 025°20'0 0.0
2014-Apr-22 09:32N 37°28' E 025°20'0 0.0
2014-Apr-22 08:32N 37°28' E 025°20'0 0.0
2014-Apr-22 07:33N 37°28' E 025°20'1515.0
2014-Apr-22 06:33N 37°34' E 025°03'3 0.2
2014-Apr-21 16:22N 37°36' E 024°60'1721.4
2014-Apr-21 15:33N 37°28' E 025°19'1 0.5
2014-Apr-21 14:29N 37°28' E 025°20'0 0.0
2014-Apr-21 13:33N 37°28' E 025°20'0 0.0
2014-Apr-21 12:32N 37°28' E 025°20'0 0.0
2014-Apr-21 11:32N 37°28' E 025°20'0 0.0
2014-Apr-21 10:32N 37°28' E 025°20'0 0.0
2014-Apr-21 09:33N 37°28' E 025°20'0 0.0
2014-Apr-21 08:33N 37°28' E 025°20'0 0.0
2014-Apr-21 07:33N 37°28' E 025°20'1413.7
2014-Apr-21 06:33N 37°33' E 025°04'4 0.2
2014-Apr-20 16:22N 37°35' E 025°00'1720.7
2014-Apr-20 15:33N 37°28' E 025°20'0 0.0
2014-Apr-20 14:33N 37°28' E 025°20'0 0.0
2014-Apr-20 13:33N 37°28' E 025°20'0 0.0
2014-Apr-20 12:33N 37°28' E 025°20'0 0.0
2014-Apr-20 11:33N 37°28' E 025°20'0 0.0
2014-Apr-20 10:33N 37°28' E 025°20'0 0.0
2014-Apr-20 09:33N 37°28' E 025°20'0 0.0
2014-Apr-20 08:33N 37°28' E 025°20'0 0.0
2014-Apr-20 07:33N 37°28' E 025°20'0 0.0
2014-Apr-20 06:30N 37°28' E 025°20'0 0.0
2014-Apr-20 05:33N 37°28' E 025°20'0 0.0
2014-Apr-20 04:33N 37°28' E 025°20'0 0.0
2014-Apr-20 03:33N 37°28' E 025°20'0 0.0
2014-Apr-20 02:33N 37°28' E 025°20'0 0.0
2014-Apr-20 01:30N 37°28' E 025°20'0 0.0
2014-Apr-20 00:33N 37°28' E 025°20'0 0.0
2014-Apr-19 23:33N 37°28' E 025°20'0 0.0
2014-Apr-19 22:33N 37°28' E 025°20'0 0.0
2014-Apr-19 21:30N 37°28' E 025°20'0 0.0
2014-Apr-19 19:15N 37°28' E 025°20'0 0.0
2014-Apr-19 18:33N 37°28' E 025°20'0 0.0
2014-Apr-19 17:33N 37°28' E 025°20'0 0.0
2014-Apr-19 16:33N 37°28' E 025°20'0 0.0
2014-Apr-19 15:33N 37°28' E 025°20'0 0.0
2014-Apr-19 14:33N 37°28' E 025°20'0 0.0
2014-Apr-19 13:33N 37°28' E 025°20'0 0.0
2014-Apr-19 12:33N 37°28' E 025°20'0 0.0
2014-Apr-19 11:33N 37°28' E 025°20'0 0.0
2014-Apr-19 10:30N 37°28' E 025°20'0 0.0
2014-Apr-19 09:33N 37°28' E 025°20'0 0.0
2014-Apr-19 08:33N 37°28' E 025°20'0 0.1
2014-Apr-19 07:33N 37°28' E 025°20'13 0.9
2014-Apr-18 16:33N 37°33' E 025°04'1212.6
2014-Apr-18 15:34N 37°28' E 025°19'1 0.6
2014-Apr-18 14:31N 37°28' E 025°20'0 0.0
2014-Apr-18 13:31N 37°28' E 025°20'0 0.0
2014-Apr-18 12:31N 37°28' E 025°20'0 0.0
2014-Apr-18 11:28N 37°28' E 025°20'0 0.0
2014-Apr-18 10:22N 37°28' E 025°20'0 0.0
2014-Apr-18 09:31N 37°28' E 025°20'0 0.0
2014-Apr-18 08:31N 37°28' E 025°20'0 0.2
2014-Apr-18 07:33N 37°28' E 025°19'3625.4
2014-Apr-18 06:09N 37°44' E 024°39'34 3.2
2014-Apr-17 19:28N 38°01' E 024°02'5136.2
2014-Apr-17 18:03N 37°36' E 024°59'1223.3
2014-Apr-17 17:33N 37°30' E 025°11'2 2.4
2014-Apr-17 16:33N 37°32' E 025°09'28 1.2
2014-Apr-16 18:24N 37°41' E 024°36'2732.1
2014-Apr-16 17:33N 37°32' E 025°09'9 8.8
2014-Apr-16 16:33N 37°28' E 025°19'2924.2
2014-Apr-16 15:21N 37°39' E 024°45'53 5.4
2014-Apr-16 05:34N 37°47' E 023°38'10 9.6
2014-Apr-16 04:33N 37°57' E 023°38'0 0.0
2014-Apr-16 03:33N 37°57' E 023°38'0 0.0
2014-Apr-16 02:30N 37°57' E 023°38'0 0.0
2014-Apr-16 01:33N 37°57' E 023°38'0 0.0
2014-Apr-16 00:33N 37°57' E 023°38'0 0.0
2014-Apr-15 23:24N 37°57' E 023°38'0 0.0
2014-Apr-15 22:18N 37°57' E 023°38'0 0.0
2014-Apr-15 21:30N 37°57' E 023°38'0 0.0
2014-Apr-15 20:24N 37°57' E 023°38'0 0.0
2014-Apr-15 19:30N 37°57' E 023°38'0 0.0
2014-Apr-15 18:33N 37°57' E 023°38'0 0.0
2014-Apr-15 17:21N 37°57' E 023°38'0 0.0
2014-Apr-15 16:33N 37°57' E 023°38'0 0.0
2014-Apr-15 15:33N 37°57' E 023°38'0 0.0
2014-Apr-15 14:21N 37°57' E 023°38'0 0.0
2014-Apr-15 12:31N 37°57' E 023°38'0 0.0
2014-Apr-15 09:34N 37°57' E 023°38'0 0.0
2014-Apr-15 08:34N 37°57' E 023°38'0 0.0
2014-Apr-14 18:30N 37°57' E 023°38'  

Dump ship's entire track history

sailing weather and tide predictions

Highspeed 5 — SYDM — position and weather